When you browse on this site, cookies collect data to enhance your experience and personalize the content and advertising you see.
Visit our Privacy Policy to learn more. By continuing to use the site, you agree to this use of cookies and data.
  • In Netherlands
  • List of Countries
  • For 7 days
  • Water Temperature
  • Weather Map
  • Weather Widgets
  • user-avatar
    Login

    Hourly Weather Cochabamba

    Today, 24 August, Saturday

    Time Temperature Precipitation Wind Pressure Humidity
    00:00 +13°C° 0 mm 1 mps 556 mmHg 78%
    01:00 +12°C° 0 mm 1 mps 555 mmHg 79%
    02:00 +12°C° 0 mm 1 mps 555 mmHg 80%
    03:00 +11°C° 0 mm 1 mps 555 mmHg 81%
    04:00 +11°C° 0 mm 1 mps 554 mmHg 83%
    05:00 +10°C° 0 mm 1 mps 554 mmHg 84%
    06:00 +11°C° 0 mm 1 mps 555 mmHg 79%
    07:00 +12°C° 0 mm 1 mps 555 mmHg 73%
    08:00 +13°C° 0 mm 1 mps 556 mmHg 68%
    09:00 +15°C° 0 mm 1 mps 557 mmHg 62%
    10:00 +18°C° 0 mm 1 mps 558 mmHg 56%
    11:00 +18°C° 0 mm 2 mps 558 mmHg 50%
    12:00 +19°C° 0 mm 2 mps 558 mmHg 48%
    13:00 +20°C° 0 mm 3 mps 557 mmHg 47%
    14:00 +21°C° 0 mm 4 mps 557 mmHg 45%
    15:00 +20°C° 0.1 mm 4 mps 556 mmHg 47%
    16:00 +20°C° 0.1 mm 4 mps 556 mmHg 49%
    17:00 +19°C° 0.1 mm 4 mps 555 mmHg 51%
    18:00 +18°C° 0.2 mm 3 mps 555 mmHg 58%
    19:00 +16°C° 0.2 mm 2 mps 555 mmHg 65%
    20:00 +15°C° 0.2 mm 1 mps 555 mmHg 72%
    21:00 +14°C° 0.1 mm 1 mps 555 mmHg 75%
    22:00 +13°C° 0.1 mm 1 mps 554 mmHg 77%
    23:00 +13°C° 0.1 mm 1 mps 554 mmHg 80%

    Tomorrow, 25 August, Sunday

    Time Temperature Precipitation Wind Pressure Humidity
    00:00 +13°C° 0 mm 1 mps 554 mmHg 80%
    01:00 +13°C° 0 mm 1 mps 554 mmHg 80%
    02:00 +12°C° 0 mm 2 mps 554 mmHg 80%
    03:00 +12°C° 0.1 mm 1 mps 554 mmHg 81%
    04:00 +12°C° 0.1 mm 1 mps 554 mmHg 81%
    05:00 +12°C° 0.1 mm 1 mps 553 mmHg 81%
    06:00 +12°C° 0 mm 1 mps 554 mmHg 78%
    07:00 +13°C° 0 mm 1 mps 555 mmHg 74%
    08:00 +14°C° 0 mm 1 mps 556 mmHg 70%
    09:00 +15°C° 0.1 mm 1 mps 556 mmHg 64%
    10:00 +18°C° 0.1 mm 1 mps 557 mmHg 58%
    11:00 +18°C° 0.1 mm 2 mps 557 mmHg 52%
    12:00 +19°C° 0.1 mm 2 mps 557 mmHg 48%
    13:00 +20°C° 0.1 mm 3 mps 557 mmHg 44%
    14:00 +21°C° 0.1 mm 3 mps 557 mmHg 40%
    15:00 +20°C° 0 mm 4 mps 556 mmHg 43%
    16:00 +19°C° 0 mm 4 mps 555 mmHg 46%
    17:00 +19°C° 0 mm 4 mps 555 mmHg 49%
    18:00 +17°C° 0.1 mm 3 mps 555 mmHg 56%
    19:00 +16°C° 0.1 mm 3 mps 554 mmHg 63%
    20:00 +14°C° 0.1 mm 2 mps 554 mmHg 70%
    21:00 +14°C° 0.1 mm 2 mps 554 mmHg 72%
    22:00 +14°C° 0.1 mm 2 mps 555 mmHg 74%
    23:00 +13°C° 0.1 mm 1 mps 555 mmHg 76%

    Day after tomorrow, 26 August, Monday

    Time Temperature Precipitation Wind Pressure Humidity
    00:00 +13°C° 0 mm 2 mps 555 mmHg 76%
    01:00 +12°C° 0 mm 2 mps 554 mmHg 76%
    02:00 +12°C° 0 mm 2 mps 554 mmHg 76%
    03:00 +11°C° 0 mm 1 mps 554 mmHg 77%
    04:00 +11°C° 0 mm 1 mps 553 mmHg 78%
    05:00 +11°C° 0 mm 1 mps 553 mmHg 79%
    06:00 +12°C° 0 mm 1 mps 554 mmHg 74%
    07:00 +13°C° 0 mm 1 mps 555 mmHg 68%
    08:00 +13°C° 0 mm 1 mps 556 mmHg 63%
    09:00 +15°C° 0 mm 1 mps 557 mmHg 57%
    10:00 +16°C° 0 mm 1 mps 557 mmHg 51%
    11:00 +19°C° 0 mm 1 mps 558 mmHg 45%
    12:00 +20°C° 0.2 mm 1 mps 558 mmHg 42%
    13:00 +19°C° 0.2 mm 2 mps 557 mmHg 39%
    14:00 +20°C° 0.2 mm 2 mps 557 mmHg 36%
    15:00 +20°C° 0.2 mm 2 mps 557 mmHg 38%
    16:00 +20°C° 0.2 mm 3 mps 556 mmHg 39%
    17:00 +19°C° 0.2 mm 3 mps 556 mmHg 40%
    18:00 +18°C° 0 mm 3 mps 556 mmHg 49%
    19:00 +16°C° 0 mm 3 mps 555 mmHg 58%
    20:00 +14°C° 0 mm 3 mps 555 mmHg 67%
    21:00 +14°C° 0 mm 2 mps 555 mmHg 69%
    22:00 +14°C° 0 mm 1 mps 556 mmHg 71%
    23:00 +13°C° 0 mm 1 mps 556 mmHg 73%

    27 August, Tuesday

    Time Temperature Precipitation Wind Pressure Humidity
    00:00 +13°C° 0 mm 1 mps 555 mmHg 74%
    01:00 +12°C° 0 mm 1 mps 555 mmHg 75%
    02:00 +12°C° 0 mm 1 mps 555 mmHg 76%
    03:00 +10°C° 0 mm 0 mps 554 mmHg 77%
    04:00 +10°C° 0 mm 0 mps 554 mmHg 78%
    05:00 +10°C° 0 mm 0 mps 554 mmHg 79%
    06:00 +11°C° 0 mm 0 mps 555 mmHg 74%
    07:00 +12°C° 0 mm 0 mps 556 mmHg 69%
    08:00 +13°C° 0 mm 0 mps 557 mmHg 64%
    09:00 +15°C° 0 mm 1 mps 558 mmHg 59%
    10:00 +18°C° 0 mm 1 mps 558 mmHg 53%
    11:00 +19°C° 0 mm 1 mps 559 mmHg 47%
    12:00 +20°C° 0.1 mm 1 mps 559 mmHg 44%
    13:00 +21°C° 0.1 mm 1 mps 558 mmHg 41%
    14:00 +22°C° 0.1 mm 1 mps 558 mmHg 38%
    15:00 +20°C° 0.2 mm 2 mps 558 mmHg 40%
    16:00 +20°C° 0.2 mm 2 mps 557 mmHg 42%
    17:00 +20°C° 0.2 mm 3 mps 557 mmHg 44%
    18:00 +18°C° 0.1 mm 3 mps 557 mmHg 51%
    19:00 +17°C° 0.1 mm 3 mps 556 mmHg 59%
    20:00 +15°C° 0.1 mm 2 mps 556 mmHg 66%
    21:00 +15°C° 0 mm 2 mps 556 mmHg 69%
    22:00 +14°C° 0 mm 1 mps 556 mmHg 71%
    23:00 +14°C° 0 mm 1 mps 556 mmHg 73%

    28 August, Wednesday

    Time Temperature Precipitation Wind Pressure Humidity
    00:00 +13°C° 0 mm 1 mps 556 mmHg 74%
    01:00 +13°C° 0 mm 1 mps 556 mmHg 76%
    02:00 +12°C° 0 mm 1 mps 555 mmHg 77%
    03:00 +11°C° 0 mm 0 mps 555 mmHg 77%
    04:00 +10°C° 0 mm 0 mps 555 mmHg 78%
    05:00 +10°C° 0 mm 0 mps 555 mmHg 78%
    06:00 +11°C° 0 mm 0 mps 556 mmHg 73%
    07:00 +12°C° 0 mm 0 mps 557 mmHg 68%
    08:00 +13°C° 0 mm 0 mps 558 mmHg 63%
    09:00 +15°C° 0 mm 1 mps 558 mmHg 55%
    10:00 +18°C° 0 mm 1 mps 559 mmHg 48%
    11:00 +19°C° 0 mm 1 mps 560 mmHg 40%
    12:00 +20°C° 0 mm 1 mps 559 mmHg 38%
    13:00 +21°C° 0 mm 1 mps 559 mmHg 35%
    14:00 +21°C° 0 mm 2 mps 558 mmHg 33%
    15:00 +21°C° 0 mm 2 mps 558 mmHg 35%
    16:00 +20°C° 0 mm 2 mps 557 mmHg 37%
    17:00 +20°C° 0 mm 2 mps 557 mmHg 39%
    18:00 +18°C° 0 mm 2 mps 557 mmHg 48%
    19:00 +17°C° 0 mm 2 mps 556 mmHg 57%
    20:00 +15°C° 0 mm 2 mps 556 mmHg 66%
    21:00 +15°C° 0 mm 2 mps 556 mmHg 68%
    22:00 +14°C° 0 mm 1 mps 556 mmHg 70%
    23:00 +14°C° 0 mm 1 mps 556 mmHg 71%

    29 August, Thursday

    Time Temperature Precipitation Wind Pressure Humidity
    00:00 +13°C° 0 mm 1 mps 555 mmHg 72%
    01:00 +13°C° 0 mm 1 mps 555 mmHg 73%
    02:00 +12°C° 0 mm 1 mps 554 mmHg 75%
    03:00 +12°C° 0 mm 1 mps 554 mmHg 75%
    04:00 +11°C° 0 mm 1 mps 554 mmHg 76%
    05:00 +11°C° 0 mm 1 mps 554 mmHg 77%
    06:00 +12°C° 0 mm 1 mps 554 mmHg 72%
    07:00 +13°C° 0 mm 1 mps 555 mmHg 66%
    08:00 +14°C° 0 mm 1 mps 556 mmHg 61%
    09:00 +16°C° 0 mm 1 mps 557 mmHg 53%
    10:00 +18°C° 0 mm 1 mps 558 mmHg 45%
    11:00 +20°C° 0 mm 1 mps 558 mmHg 37%
    12:00 +21°C° 0 mm 1 mps 558 mmHg 35%
    13:00 +22°C° 0 mm 1 mps 558 mmHg 32%
    14:00 +23°C° 0 mm 1 mps 557 mmHg 29%
    15:00 +21°C° 0 mm 2 mps 557 mmHg 32%
    16:00 +21°C° 0 mm 2 mps 556 mmHg 35%
    17:00 +21°C° 0 mm 2 mps 556 mmHg 38%
    18:00 +19°C° 0 mm 2 mps 555 mmHg 47%
    19:00 +17°C° 0 mm 2 mps 555 mmHg 56%
    20:00 +16°C° 0 mm 3 mps 555 mmHg 64%
    21:00 +15°C° 0 mm 2 mps 555 mmHg 67%
    22:00 +14°C° 0 mm 2 mps 555 mmHg 69%
    23:00 +14°C° 0 mm 2 mps 555 mmHg 72%
    Show more